STARLINK-35452, 66104

Orbit data source: Space-Track

STARLINK-35452, 66104 is a payload satellite owned by SpaceX/Seattle (US) in LEO that was launched on Sun, 19 Oct 2025 UTC via an FALCON 9 launch vehicle from the Air Force Western Test Range (AFWTR). Payload-class satellites include a variety of spacecraft equipped with specific instruments for various scientific and technological missions. These include communications satellites like Starlink; space stations such as the ISS; scientific satellites like the Hubble; Earth observation satellites from companies like Planet Labs, Umbra, and HawkEye 360; GPS; miniature CubeSats for education and research; and military/defense satellites.

Loading next visibility...
Identifier
66104, 2025-236U
Orbit
LEO
Country
Flag of USUS
Related business
Manufacturer
SpaceX/Seattle
Mission
Operational Commercial Communications
Bus & Motor
STARLINK V2MO, Unknown motor
Mass
575 kg wet, ~530 kg dry
Launch date (UTC)
2025-10-19 (8 months ago)
Launch vehicle
FALCON 9
Launch site
Air Force Western Test Range (AFWTR)
Object type
Payload
Rocket body
Debris
Shape & HBR
Box + 2 Pan, 17.7 m
Radar Cross Section
36.964 m², Large (>1 m²)

Expand to show TLE details & history
Last TLE update: 1 day ago

TLE from 1 day ago
0 STARLINK-35452
1 66104U 25236U   26170.76652348  .00024451  00000-0  73238-3 0  9994
2 66104  53.1613 348.9839 0001123  61.9057 298.2059 15.34402843 38580
Epoch: 2026-06-19T18:23Z
TLE epoch observation values (Epoch: 2026-06-19T18:23:47.628Z)
Latitude
-0.00004°
Longitude
165.04464°
Altitude
463.233 km
Speed
7.636 km/s
True Right ascension
23h 15m 56s
True Declination
0° 00' 00"
Sunlit
Object was in daylight at epoch
Visualization orbit readout
Latitude
Unknown
Longitude
Unknown
Altitude
Unknown
Speed
Unknown
Apparent Right ascension
Unknown
Apparent Declination
Unknown
Sunlit
N/A
Visualization observer readout
Local Sidereal Time
08:42:50
Azimuth
Unknown
Elevation
Unknown
Doppler factor
Unknown
Orbital elements
Apogee altitude
463.72 km
Perigee altitude
462.183 km
Semi-major axis
6,841.088 km
Eccentricity
0.00011
Inclination
53.1613°
RAAN
348.9839°
Arg. of periapsis
61.9057°
True anomaly
298.19456°
Mean anomaly
298.2059°
Eccentric anomaly
298.20023°
Mean motion
3.83579 °/min
Orbital period
93.85 mins
BSTAR
0.00073238
Loading maneuver chart data...
Computing Atmospheric mass density...
Loading historical data...
Loading historical data...
Loading historical data...
Loading historical data...
Loading historical data...
Loading historical data...
Loading historical data...

Documentation

Showing up to 5 results
|